Weather History for KMCI - March, 2014

Change the Weather History Date:

Wednesday, March 19, 2014

  Actual Average Record
Temperature  
Mean Temperature 44 °F 45 °F  
Max Temperature 54 °F 57 °F 81 °F (1995)
Min Temperature 34 °F 34 °F 3 °F (1923)
Degree Days  
Heating Degree Days 21 20  
Month to date heating degree days 515 437  
Since 1 July heating degree days 5081 4482  
Cooling Degree Days 0 0  
Month to date cooling degree days 0 0  
Year to date cooling degree days 0 0  
Moisture  
Dew Point 26 °F    
Average Humidity 54    
Maximum Humidity 82    
Minimum Humidity 26    
Precipitation  
Precipitation 0.01 in 0.08 in 1.83 in (1901)
Month to date precipitation 1.34 1.32  
Year to date precipitation 3.09 3.85  
Snow  
Snow 0.00 in 0.00 in 2.20 in (2010)
Month to date snowfall 3.1 1.4  
Since 1 July snowfall 25.7 17.6  
Snow Depth 0.00 in    
Sea Level Pressure  
Sea Level Pressure 29.99 in    
Wind  
Wind Speed 13 mph (WNW)    
Max Wind Speed 26 mph    
Max Gust Speed 34 mph    
Visibility 9 miles    
Events      
T = Trace of Precipitation, MM = Missing Value Source: NWS Daily Summary

Daily Weather History Graph

Daily Weather History Graph

Search for Another Location

Airport or City:

Trip Planner

Search our weather history database for the weather conditions in past years. The results will help you decide how hot, cold, wet, or windy it might be!

Date:

Astronomy

Mar. 19, 2014 Rise Set
Actual Time 7:23 AM CDT 7:29 PM CDT
Civil Twilight 6:57 AM CDT 7:56 PM CDT
Nautical Twilight 6:25 AM CDT 8:28 PM CDT
Astronomical Twilight 5:54 AM CDT 8:59 PM CDT
Moon 10:48 PM CDT (3/19) 8:51 AM CDT (3/19)
Length of Visible Light 12h 59m
Length of Day
12h 06m
Waning Gibbous, 91% of the Moon is Illuminated
Mar 19
Waning Gibbous
Mar 23
Last Quarter
Mar 30
New
Apr 7
First Quarter
Apr 15
Full

Hourly Weather History & Observations

Time (CDT) Temp. Windchill Dew Point Humidity Pressure Visibility Wind Dir Wind Speed Gust Speed Precip Events Conditions
12:53 AM 42.1 °F 33.6 °F 34.0 °F 73% 29.67 in 10.0 mi NW 18.4 mph 25.3 mph N/A   Scattered Clouds
1:21 AM 39.9 °F 30.2 °F 34.0 °F 79% 29.69 in 9.0 mi NW 20.7 mph 29.9 mph N/A   Overcast
1:42 AM 39.0 °F 28.5 °F 32.0 °F 76% 29.71 in 8.0 mi NW 23.0 mph 34.5 mph N/A   Overcast
1:53 AM 37.9 °F 28.5 °F 32.0 °F 79% 29.72 in 8.0 mi NW 17.3 mph 29.9 mph 0.00 in   Light Drizzle
2:53 AM 36.0 °F 26.0 °F 30.9 °F 82% 29.78 in 6.0 mi NW 17.3 mph 27.6 mph 0.01 in   Haze
3:41 AM 35.1 °F 25.5 °F 30.0 °F 82% 29.81 in 7.0 mi NW 15.0 mph 26.5 mph 0.00 in   Overcast
3:53 AM 35.1 °F 24.1 °F 28.9 °F 78% 29.82 in 7.0 mi NW 19.6 mph 26.5 mph 0.00 in   Overcast
4:53 AM 34.0 °F 24.6 °F 28.0 °F 79% 29.87 in 7.0 mi NW 13.8 mph 24.2 mph N/A   Overcast
5:53 AM 34.0 °F 23.4 °F 28.0 °F 79% 29.92 in 8.0 mi NW 17.3 mph 28.8 mph N/A   Overcast
6:53 AM 35.1 °F 26.9 °F 28.0 °F 76% 29.96 in 9.0 mi NW 11.5 mph 21.9 mph N/A   Overcast
7:53 AM 35.1 °F 25.2 °F 28.9 °F 78% 29.99 in 7.0 mi NW 16.1 mph 26.5 mph N/A   Overcast
8:17 AM 36.0 °F 27.1 °F 28.9 °F 76% 29.99 in 7.0 mi NW 13.8 mph - N/A   Overcast
8:53 AM 36.0 °F 26.0 °F 28.0 °F 73% 30.03 in 9.0 mi NW 17.3 mph 23.0 mph N/A   Overcast
9:53 AM 37.0 °F 27.7 °F 27.0 °F 67% 30.07 in 10.0 mi NW 16.1 mph 24.2 mph N/A   Overcast
10:53 AM 39.0 °F 30.6 °F 27.0 °F 62% 30.10 in 10.0 mi NW 15.0 mph - N/A   Mostly Cloudy
11:53 AM 42.1 °F 34.9 °F 27.0 °F 55% 30.12 in 10.0 mi WNW 13.8 mph - N/A   Mostly Cloudy
12:21 PM 44.1 °F 37.7 °F 28.0 °F 53% 30.11 in 10.0 mi WNW 12.7 mph - N/A   Scattered Clouds
12:53 PM 46.0 °F 39.6 °F 27.0 °F 47% 30.12 in 10.0 mi West 15.0 mph 23.0 mph N/A   Partly Cloudy
1:53 PM 48.0 °F - 24.1 °F 39% 30.12 in 10.0 mi NW 18.4 mph 26.5 mph N/A   Partly Cloudy
2:53 PM 51.1 °F - 23.0 °F 33% 30.10 in 10.0 mi WNW 13.8 mph 24.2 mph N/A   Partly Cloudy
3:53 PM 52.0 °F - 21.9 °F 31% 30.10 in 10.0 mi NNW 12.7 mph 20.7 mph N/A   Clear
4:53 PM 53.1 °F - 21.0 °F 29% 30.09 in 10.0 mi WNW 8.1 mph 20.7 mph N/A   Clear
5:53 PM 53.1 °F - 19.9 °F 27% 30.09 in 10.0 mi West 12.7 mph - N/A   Clear
6:53 PM 51.1 °F - 21.9 °F 32% 30.10 in 10.0 mi WNW 10.4 mph - N/A   Clear
7:53 PM 48.0 °F - 21.0 °F 34% 30.11 in 10.0 mi WNW 4.6 mph - N/A   Clear
8:53 PM 46.0 °F 43.9 °F 21.0 °F 37% 30.12 in 10.0 mi WSW 4.6 mph - N/A   Clear
9:53 PM 44.1 °F 40.8 °F 21.9 °F 42% 30.13 in 10.0 mi SSW 5.8 mph - N/A   Clear
10:53 PM 41.0 °F 36.4 °F 21.9 °F 47% 30.12 in 10.0 mi South 6.9 mph - N/A   Clear
11:53 PM 37.0 °F 31.0 °F 23.0 °F 57% 30.11 in 10.0 mi South 8.1 mph - N/A   Clear